Location: Unspecified
(57.6483°N, 3.3184°W)
Time: 09:38:13
(UTC+00:00)

BlueWalker 3 - Pass Details

Date: 03 February 2026
Orbit: 450 x 461 km, 53.2° (Epoch: 11 February)

Event Time Altitude Azimuth Distance (km) Brightness Sun altitude
Rises 17:42:52 0° 264° (W) 2,461 7.5 -8.0°
Reaches altitude 10° 17:45:05 10° 256° (WSW) 1,587 6.2 -8.3°
Maximum altitude 17:48:26 39° 187° (S) 692 2.9 -8.7°
Drops below altitude 10° 17:51:46 10° 117° (ESE) 1,583 4.0 -9.2°
Enters shadow 17:52:24 - 114° (ESE) 1,828 4.3 -9.2°
